sat.trackr.live / text

‹ back to catalog

STARLINK-32238

NORAD 61661 · 2024-193A

PAYLOAD ACTIVE UNKNOWN

§ Identity

Operator
Country
US
Launch date
2024-10-26
Launch site
AFETR
Launch vehicle
Mass (kg)
RCS (m²)

Purposes: comms

External: N2YO · Heavens-Above · Gunter

§ Orbital elements

Epoch: 2026-05-25T02:32:36.298752Z

Period
94.11 min
Inclination
53.1611°
Eccentricity
0.0001313
Mean motion
15.30199774 rev/d
Perigee alt
474.3 km
Apogee alt
476.1 km
Semi-major
6,853.4 km
B*
1.5797e-4
RAAN
96.2489°
Arg perigee
111.4328°
Mean anomaly
248.6813°
Rev number
8,822

§ Raw data

STARLINK-322381 61661U 24193A   26145.10597568  .00004322  00000+0  15797-3 0  99902 61661  53.1611  96.2489 0001313 111.4328 248.6813 15.30199774 88223

JSON: /api/v1/satellites/61661 · /tle

For live sub-satellite position, see the globe view (requires WebGL).

§ Visibility from observer

Set your observer location to see the next 7 days of passes ≥ 10°. The values pass through the URL so the page stays shareable.

No JS? Fill the form by hand. The geolocation button needs JavaScript.